TimeAKST,TemperatureF,Dew PointF,Humidity,Sea Level PressureIn,VisibilityMPH,Wind Direction,Wind SpeedMPH,Gust SpeedMPH,PrecipitationIn,Events,Conditions,WindDirDegrees,DateUTC
12:53 AM,21.0,6.1,53,29.47,10.0,NNE,4.6,-,N/A,,Clear,30,2012-11-05 09:53:00
1:53 AM,21.9,6.1,51,29.49,10.0,NNE,4.6,-,N/A,,Clear,20,2012-11-05 10:53:00
3:53 AM,16.0,9.0,74,29.52,10.0,Calm,Calm,-,N/A,,Clear,0,2012-11-05 12:53:00
4:53 AM,15.1,9.0,77,29.54,10.0,Calm,Calm,-,N/A,,Clear,0,2012-11-05 13:53:00
5:53 AM,14.0,8.1,77,29.55,10.0,Calm,Calm,-,N/A,,Clear,0,2012-11-05 14:53:00
6:53 AM,15.1,8.1,74,29.56,10.0,Calm,Calm,-,N/A,,Clear,0,2012-11-05 15:53:00
7:53 AM,14.0,8.1,77,29.57,10.0,Calm,Calm,-,N/A,,Clear,0,2012-11-05 16:53:00
8:53 AM,14.0,7.0,74,29.59,10.0,Calm,Calm,-,N/A,,Clear,0,2012-11-05 17:53:00
9:53 AM,17.1,7.0,65,29.60,10.0,East,3.5,-,N/A,,Clear,90,2012-11-05 18:53:00
10:53 AM,18.0,8.1,65,29.62,10.0,Calm,Calm,-,N/A,,Clear,0,2012-11-05 19:53:00
11:53 AM,23.0,10.0,58,29.64,10.0,Calm,Calm,-,N/A,,Mostly Cloudy,0,2012-11-05 20:53:00
12:53 PM,24.1,9.0,53,29.65,10.0,ENE,4.6,-,N/A,,Overcast,70,2012-11-05 21:53:00
1:53 PM,25.0,8.1,49,29.65,10.0,ENE,4.6,-,N/A,,Overcast,60,2012-11-05 22:53:00
2:53 PM,25.0,8.1,49,29.66,10.0,ENE,4.6,-,N/A,,Overcast,70,2012-11-05 23:53:00
3:53 PM,24.1,8.1,51,29.66,10.0,ENE,5.8,-,N/A,,Overcast,60,2012-11-06 00:53:00
4:53 PM,24.1,9.0,53,29.67,10.0,East,3.5,-,N/A,,Overcast,80,2012-11-06 01:53:00
5:53 PM,25.0,10.0,53,29.69,10.0,Calm,Calm,-,N/A,,Overcast,0,2012-11-06 02:53:00
6:53 PM,26.1,6.1,43,29.71,10.0,North,6.9,-,N/A,,Overcast,10,2012-11-06 03:53:00
7:53 PM,25.0,6.1,45,29.73,10.0,North,10.4,-,N/A,,Overcast,10,2012-11-06 04:53:00
8:53 PM,25.0,7.0,46,29.74,10.0,North,13.8,19.6,N/A,,Overcast,350,2012-11-06 05:53:00
9:53 PM,24.1,8.1,51,29.76,10.0,North,11.5,-,N/A,,Overcast,360,2012-11-06 06:53:00
10:53 PM,24.1,5.0,44,29.77,10.0,North,12.7,-,N/A,,Overcast,360,2012-11-06 07:53:00
11:53 PM,23.0,3.9,44,29.79,10.0,North,9.2,18.4,N/A,,Overcast,360,2012-11-06 08:53:00